This is the latest recevied weather packets stored in our database for station/object iw0uwf-4. If no packets are shown the sender has not sent any weather packets the latest 1 day(s).
| Time | Temp. | Humidity | Pressure | Rain* | Wind** | Luminosity | Snow |
|---|---|---|---|---|---|---|---|
| 1778019964 | 15° C | 81% | 1005.1 hPa | 0 mm | 2.24 m/s, 248° | 0 W/m² | - |
| 1778019904 | 15° C | 81% | 1005.1 hPa | 0 mm | 2.68 m/s, 246° | 0 W/m² | - |
| 1778019844 | 15° C | 81% | 1005.1 hPa | 0 mm | 2.24 m/s, 238° | 0 W/m² | - |
| 1778019784 | 15° C | 81% | 1005.1 hPa | 0 mm | 2.24 m/s, 228° | 0 W/m² | - |
| 1778019724 | 15.56° C | 82% | 1005 hPa | 0 mm | 2.24 m/s, 219° | 0 W/m² | - |
| 1778019664 | 15.56° C | 82% | 1005.1 hPa | 0 mm | 2.68 m/s, 285° | 0 W/m² | - |
| 1778019604 | 15.56° C | 82% | 1005.1 hPa | 0 mm | 3.13 m/s, 245° | 0 W/m² | - |
| 1778019424 | 15.56° C | 82% | 1005 hPa | 0 mm | 3.13 m/s, 241° | 0 W/m² | - |
| 1778019363 | 15.56° C | 82% | 1005.1 hPa | 0 mm | 3.13 m/s, 241° | 0 W/m² | - |
| 1778019303 | 15.56° C | 82% | 1005 hPa | 0 mm | 3.13 m/s, 240° | 0 W/m² | - |
| 1778019243 | 15.56° C | 82% | 1005.2 hPa | 0 mm | 3.13 m/s, 244° | 0 W/m² | - |
| 1778019183 | 15.56° C | 82% | 1005 hPa | 0 mm | 3.13 m/s, 239° | 0 W/m² | - |
| 1778019124 | 15.56° C | 82% | 1005.1 hPa | 0 mm | 3.13 m/s, 233° | 0 W/m² | - |
| 1778019063 | 15.56° C | 82% | 1005.1 hPa | 0 mm | 3.13 m/s, 228° | 0 W/m² | - |
| 1778019003 | 15.56° C | 83% | 1005.2 hPa | 0 mm | 3.13 m/s, 227° | 0 W/m² | - |
| 1778018943 | 15.56° C | 83% | 1005.2 hPa | 0 mm | 2.68 m/s, 225° | 0 W/m² | - |
| 1778018883 | 15.56° C | 83% | 1005.1 hPa | 0 mm | 2.68 m/s, 224° | 0 W/m² | - |
| 1778018824 | 15.56° C | 83% | 1005.1 hPa | 0 mm | 2.68 m/s, 227° | 0 W/m² | - |
| 1778018764 | 15.56° C | 83% | 1005.2 hPa | 0 mm | 2.68 m/s, 223° | 0 W/m² | - |
| 1778018705 | 15.56° C | 83% | 1005.1 hPa | 0 mm | 2.68 m/s, 228° | 0 W/m² | - |
| 1778018644 | 15.56° C | 83% | 1005.3 hPa | 0 mm | 2.68 m/s, 232° | 0 W/m² | - |
| 1778018584 | 15.56° C | 83% | 1005.1 hPa | 0 mm | 2.68 m/s, 234° | 0 W/m² | - |
| 1778018524 | 15.56° C | 83% | 1005.3 hPa | 0 mm | 2.68 m/s, 236° | 0 W/m² | - |
| 1778018464 | 15.56° C | 83% | 1005.1 hPa | 0 mm | 2.24 m/s, 235° | 0 W/m² | - |
| 1778018450 | 15.56° C | 83% | 1005.1 hPa | 0 mm | 2.24 m/s, 234° | 0 W/m² | - |
* Rain latest hour (hover to see other rain measurements)
** Current wind speed in m/s (hover to see current wind gust speed)